[[{"header":{"parameterUnit":"m.s-1","parameterCategory":1,"la1":30.2991,"la2":30.254,"lo1":-89.0895,"lo2":-89.0444,"dy":0.0017,"dx":0.0017,"nx":28,"ny":28,"refTime":"2024-08-11T09:00:00:Z","depth":0,"parameterNumber":2,"parameterNumberName":"U-component_of_WINDS"},"data":[0,0,0,0,0,0,0,0,0,0,0,0,0,0,0,0,0,0,0,0,0,0,0,0,0,0,0,0,0,0,0,0,0,0,0,0,0,0,0,0,0,0,0,0,0,0,0,0,0,0,0,0,0,0,0,0,0,0,3.3835,3.3836,0,3.3892,3.3893,3.3893,3.3818,3.3816,3.3813,3.381,3.387,3.3874,3.3878,0,0,0,0,0,0,0,0,0,0,0,0,0,3.366,3.3664,3.3835,3.3836,3.3836,3.3892,3.3893,3.3893,3.3819,3.3815,3.3812,3.3809,3.3869,3.3873,3.3878,0,0,0,0,0,0,0,0,0,0,0,0,0,3.3729,3.3665,3.3835,3.3806,3.3804,3.3892,3.3893,3.3894,3.3819,3.3815,3.3811,3.3808,3.3867,3.3873,3.3879,3.3999,0,0,3.3898,3.3901,0,0,0,0,0,0,0,0,3.3725,3.3735,3.3809,3.3808,3.3806,3.3844,3.3853,3.3929,3.3821,3.3814,3.381,3.3806,3.3865,3.3871,3.389,3.4001,3.4004,3.3898,3.3902,3.3905,3.3907,0,0,0,0,0,0,0,3.372,3.3732,3.3857,3.381,3.3808,3.3789,3.3795,3.3867,3.3861,3.3814,3.3809,3.3816,3.3863,3.3885,3.3891,3.4005,3.3898,3.3904,3.3908,3.391,3.4212,3.4217,0,0,0,0,0,0,3.3719,3.3729,3.3856,3.3859,3.3754,3.3796,3.3802,3.3836,3.386,3.386,3.382,3.3813,3.3876,3.3884,3.3893,3.4031,3.3905,3.3911,3.3914,3.4208,3.4213,3.4218,0,0,0,0,0,0,3.3716,3.3731,3.3853,3.3793,3.3807,3.3803,3.3842,3.3839,3.3861,3.3865,3.3863,3.3843,3.3873,3.3884,3.3972,3.4032,3.3913,3.3919,3.4203,3.421,3.4216,3.4311,0,0,0,0,0,0,3.3711,3.373,3.3776,3.3794,3.381,3.3932,3.3846,3.3843,3.3871,3.3863,3.3886,3.3886,3.3871,3.3963,3.3978,3.4039,3.3924,3.4198,3.4206,3.4214,3.4302,3.432,3.4335,0,0,0,0,0,3.3705,3.3802,3.3779,3.3794,3.3867,3.3936,3.3945,3.3925,3.3877,3.3922,3.3924,3.3885,3.4024,3.3973,3.3989,3.4052,3.4194,3.4204,3.4213,3.4295,3.4316,3.4334,0,0,0,0,0,0,3.3792,3.3804,3.3778,3.3884,3.3909,3.3923,3.3979,3.3949,3.3989,3.3979,3.3953,3.3959,3.4051,3.4061,3.4004,3.4167,3.4101,3.4114,3.4157,3.4178,3.4194,3.4188,3.3929,0,0,0,0,0,3.3823,3.3878,3.3885,3.3978,3.3991,3.3984,3.4013,3.3995,3.402,3.403,3.4039,3.4065,3.4114,3.4147,3.4192,3.4304,3.4306,3.4355,3.4372,3.4385,3.4396,3.4452,3.4473,3.425,3.425,3.425,0,0,3.3889,3.3902,3.3938,3.3995,3.4013,3.4068,3.3993,3.4056,3.4097,3.404,3.4122,3.4129,3.4157,3.4255,3.43,3.4266,3.4458,3.4397,3.4408,3.4412,3.4464,3.4485,3.4504,3.4257,3.4256,3.4254,0,0,3.4036,3.4053,3.4129,3.4148,3.4175,3.4168,3.4187,3.4205,3.4207,3.4289,3.4246,3.4294,3.438,3.44,3.4422,3.4574,3.4538,3.459,3.4674,3.4728,3.4746,3.4761,3.4812,3.4831,3.4601,3.4601,3.4602,0,3.4114,3.4196,3.4173,3.4238,3.4263,3.4214,3.429,3.4309,3.435,3.4368,3.4331,3.4435,3.445,3.4551,3.4587,3.4608,3.4626,3.4586,3.4745,3.476,3.4774,3.4822,3.4842,3.4607,3.4606,3.4606,3.4605,0,3.4289,3.4347,3.4405,3.4444,3.4476,3.4547,3.4534,3.4569,3.4548,3.4546,3.4628,3.4644,3.469,3.4714,3.4695,3.4811,3.4789,3.4749,3.4681,3.4802,3.4846,3.4865,3.4615,3.4613,3.4612,3.461,0,0,3.4492,3.4515,3.4537,3.4552,3.4577,3.4621,3.4689,3.4733,3.4762,3.4792,3.4846,3.4919,3.4881,3.4905,3.4888,3.4937,3.5052,3.489,3.489,3.4916,3.5177,3.5204,3.5226,3.5029,3.5033,3.5036,3.5173,0,3.4636,3.4752,3.4732,3.4844,3.4895,3.4848,3.4907,3.4928,3.4927,3.497,3.4969,3.5019,3.4967,3.4981,3.5027,3.5028,3.5103,3.5018,3.5077,3.508,3.5069,3.525,3.5281,3.541,3.5191,3.5194,3.5196,0,3.482,3.4854,3.497,3.4984,3.5005,3.5058,3.5095,3.5137,3.5159,3.5155,3.5181,3.5155,3.522,3.5153,3.5242,3.5185,3.5208,3.5212,3.5216,3.5219,3.5143,3.5255,3.5451,3.5469,3.5224,3.5222,3.522,0,3.4951,3.5027,3.5105,3.5121,3.514,3.5177,3.5187,3.5205,3.5232,3.5265,3.5281,3.5322,3.5344,3.5376,3.536,3.5313,3.5451,3.5383,3.5447,3.5447,3.5476,3.5474,3.5676,3.5497,3.5497,3.5496,3.5496,0,3.5112,3.5185,3.5164,3.5213,3.5291,3.5268,3.5347,3.5351,3.5367,3.5414,3.5377,3.5422,3.54,3.5443,3.5432,3.5505,3.5517,3.5513,3.5509,3.5515,3.5515,3.5528,3.5517,3.5501,3.55,3.5499,3.5498,0,3.5272,3.5262,3.5344,3.5354,3.5358,3.5416,3.5424,3.5469,3.5465,3.5525,3.5537,3.5531,3.5579,3.5567,3.5621,3.5613,3.5705,3.5691,3.5697,3.5692,3.5755,3.5748,3.597,3.5996,3.5804,3.5806,3.5807,0,3.5374,3.5428,3.5444,3.5472,3.5484,3.5531,3.5557,3.5536,3.5565,3.5593,3.5633,3.5679,3.5713,3.5793,3.5793,3.5833,3.5817,3.5892,3.5823,3.5826,3.5814,3.581,3.5813,3.5905,3.5907,3.5909,3.5911,0,3.5555,3.5546,3.5586,3.5623,3.5655,3.5683,3.5708,3.5734,3.5714,3.5748,3.5796,3.5823,3.5877,3.5921,3.5957,3.5966,3.5935,3.5933,3.5949,3.5954,3.5954,3.5951,3.5731,3.5927,3.5925,3.5924,3.5923,3.5923,3.5686,3.5731,3.5748,3.5792,3.5808,3.5832,3.5872,3.5873,3.5913,3.5953,3.5939,3.5993,3.6012,3.6057,3.6071,3.6112,3.6084,3.6109,3.6114,3.612,3.6126,3.595,3.612,3.6119,3.6119,3.6118,3.6118,0,3.5862,3.587,3.5911,3.5946,3.598,3.5947,3.5972,3.6003,3.6051,3.6071,3.6105,3.6159,3.6201,3.6204,3.6243,3.6276,3.6262,3.6287,3.6282,3.6284,3.6151,3.6131,3.6297,3.6297,3.6297,3.6297,3.6297,3.6297,3.5957,3.6029,3.6023,3.6102,3.6109,3.6162,3.6178,3.6199,3.6214,3.6276,3.631,3.6312,3.6324,3.6363,3.64,3.6399,3.6414,3.6443,3.6437,3.6312,3.6294,3.6277,3.6258,3.6448,3.6448,3.6566,3.6568,3.6568]},{"header":{"parameterUnit":"m.s-1","parameterCategory":1,"la1":30.2991,"la2":30.254,"lo1":-89.0895,"lo2":-89.0444,"dy":0.0017,"dx":0.0017,"nx":28,"ny":28,"refTime":"2024-08-11T09:00:00:Z","depth":0,"parameterNumber":3,"parameterNumberName":"V-component_of_WINDS"},"data":[0,0,0,0,0,0,0,0,0,0,0,0,0,0,0,0,0,0,0,0,0,0,0,0,0,0,0,0,0,0,0,0,0,0,0,0,0,0,0,0,0,0,0,0,0,0,0,0,0,0,0,0,0,0,0,0,0,0,3.3545,3.3545,0,3.3531,3.3531,3.3531,3.346,3.3458,3.3456,3.3455,3.3441,3.3443,3.3444,0,0,0,0,0,0,0,0,0,0,0,0,0,3.351,3.3511,3.3545,3.3545,3.3544,3.3531,3.3531,3.3531,3.346,3.3458,3.3456,3.3454,3.3441,3.3442,3.3444,0,0,0,0,0,0,0,0,0,0,0,0,0,3.3513,3.3511,3.3545,3.3508,3.3504,3.3531,3.3531,3.353,3.346,3.3458,3.3455,3.3453,3.3441,3.3442,3.3444,3.3506,0,0,3.345,3.345,0,0,0,0,0,0,0,0,3.3513,3.3515,3.3513,3.351,3.3506,3.3494,3.3513,3.3522,3.3461,3.3477,3.3455,3.3452,3.3461,3.3461,3.3464,3.3505,3.3505,3.345,3.3451,3.3452,3.3452,0,0,0,0,0,0,0,3.3513,3.3515,3.3539,3.3513,3.3509,3.3491,3.3489,3.3515,3.3483,3.3475,3.347,3.347,3.3459,3.3463,3.3463,3.3505,3.345,3.3451,3.3453,3.3453,3.3594,3.3597,0,0,0,0,0,0,3.3518,3.3515,3.354,3.3539,3.3504,3.3494,3.3492,3.3501,3.3483,3.3478,3.3472,3.3466,3.3461,3.3461,3.3463,3.3532,3.3452,3.3453,3.3454,3.3591,3.3595,3.3598,0,0,0,0,0,0,3.3518,3.3521,3.354,3.3526,3.3527,3.3497,3.3508,3.3502,3.3505,3.348,3.3474,3.3481,3.3459,3.346,3.3495,3.3531,3.3454,3.3456,3.3588,3.3592,3.3596,3.3673,0,0,0,0,0,0,3.3517,3.3521,3.3545,3.3527,3.3528,3.3573,3.3511,3.3503,3.3509,3.3501,3.3488,3.3483,3.3457,3.3493,3.3497,3.3532,3.3457,3.3585,3.359,3.3595,3.3667,3.3679,3.369,0,0,0,0,0,3.3516,3.3567,3.3546,3.3549,3.3556,3.3576,3.3576,3.3545,3.3512,3.3535,3.3518,3.3483,3.3527,3.3497,3.3501,3.3537,3.3583,3.3589,3.3594,3.3662,3.3677,3.3689,0,0,0,0,0,0,3.3591,3.3564,3.354,3.3588,3.3584,3.3564,3.3592,3.3562,3.3568,3.3561,3.3522,3.352,3.356,3.3552,3.352,3.3595,3.3548,3.3556,3.3599,3.3612,3.3623,3.3624,3.3459,0,0,0,0,0,3.3613,3.3631,3.3607,3.3651,3.365,3.3621,3.3629,3.3605,3.36,3.3598,3.3584,3.3581,3.3594,3.3603,3.3613,3.3666,3.3661,3.3693,3.3704,3.3713,3.3719,3.3745,3.3759,3.3617,3.3617,3.3617,0,0,3.3659,3.3646,3.366,3.3665,3.366,3.3679,3.3621,3.3644,3.3657,3.3602,3.3633,3.3624,3.3617,3.3661,3.368,3.3656,3.3758,3.3721,3.3729,3.3729,3.3753,3.3766,3.3778,3.3621,3.362,3.362,0,0,3.3751,3.3744,3.3779,3.3774,3.3766,3.3747,3.3756,3.3739,3.373,3.3761,3.372,3.3735,3.3759,3.3755,3.3757,3.3847,3.3814,3.3851,3.3909,3.3935,3.3946,3.3955,3.3986,3.3998,3.3858,3.3858,3.3858,0,3.3808,3.3835,3.3801,3.3826,3.3829,3.3779,3.3814,3.3811,3.3808,3.3811,3.3784,3.3811,3.3803,3.3845,3.3867,3.387,3.3878,3.3852,3.3947,3.3956,3.3965,3.3994,3.4005,3.3863,3.3862,3.3862,3.3861,0,3.3905,3.3924,3.3954,3.395,3.3957,3.3987,3.3957,3.3967,3.3943,3.3926,3.3958,3.3947,3.3954,3.3962,3.3939,3.4001,3.3986,3.3954,3.3906,3.3983,3.401,3.4021,3.3869,3.3867,3.3866,3.3865,0,0,3.4044,3.4021,3.4032,3.4029,3.4016,3.403,3.4058,3.4064,3.4073,3.4072,3.4093,3.4114,3.4084,3.4085,3.4061,3.4084,3.4154,3.4049,3.4048,3.4068,3.422,3.4243,3.4256,3.4133,3.4135,3.4137,3.422,0,3.4131,3.4175,3.4145,3.4194,3.4211,3.4164,3.4187,3.4182,3.4168,3.4179,3.4163,3.4177,3.4137,3.4138,3.4158,3.4142,3.4184,3.4136,3.4152,3.4153,3.4153,3.427,3.4295,3.4373,3.423,3.4232,3.4233,0,3.4238,3.424,3.4292,3.4274,3.428,3.4302,3.4304,3.4316,3.4309,3.4296,3.4298,3.4268,3.4293,3.4247,3.4281,3.4248,3.4254,3.4247,3.4249,3.4248,3.4197,3.4271,3.4397,3.4409,3.4249,3.4248,3.4247,0,3.4331,3.4348,3.438,3.438,3.4361,3.4377,3.437,3.436,3.4365,3.4368,3.437,3.4376,3.4379,3.4384,3.4356,3.4325,3.4393,3.4345,3.4382,3.4383,3.4398,3.4397,3.4525,3.4404,3.4404,3.4404,3.4403,0,3.443,3.4463,3.4422,3.4441,3.4476,3.4441,3.4477,3.4465,3.4457,3.4473,3.4434,3.445,3.4413,3.4425,3.4404,3.4434,3.4436,3.4426,3.442,3.4429,3.443,3.4431,3.4424,3.4407,3.4406,3.4406,3.4405,0,3.4541,3.4514,3.4546,3.4525,3.4521,3.4547,3.4529,3.4547,3.4529,3.455,3.4553,3.4526,3.4538,3.4511,3.452,3.4506,3.4548,3.4534,3.455,3.4545,3.4584,3.458,3.4716,3.4731,3.4602,3.4603,3.4604,0,3.4605,3.4628,3.461,3.4617,3.4612,3.4626,3.463,3.4597,3.4603,3.4596,3.4614,3.4623,3.4628,3.4651,3.4631,3.4638,3.4623,3.467,3.4623,3.4631,3.4621,3.4619,3.4621,3.4679,3.4681,3.4682,3.4683,0,3.472,3.4706,3.4714,3.4717,3.4723,3.4724,3.4723,3.4731,3.4695,3.4705,3.4716,3.4721,3.4729,3.4738,3.474,3.4733,3.4702,3.4698,3.4707,3.4715,3.4723,3.4717,3.4575,3.4695,3.4693,3.4693,3.4692,3.4691,3.4808,3.4826,3.4815,3.4825,3.482,3.4819,3.4834,3.4818,3.4827,3.483,3.481,3.4826,3.4818,3.4817,3.4813,3.4825,3.4804,3.4817,3.482,3.4823,3.4829,3.4722,3.4826,3.4825,3.4825,3.4825,3.4825,0,3.492,3.4911,3.492,3.4918,3.4926,3.4895,3.4892,3.49,3.4914,3.4909,3.4915,3.4928,3.4936,3.4918,3.4924,3.4937,3.4922,3.4939,3.4937,3.4936,3.4848,3.4839,3.495,3.495,3.495,3.495,3.495,3.495,3.4979,3.5008,3.4992,3.5017,3.5008,3.5022,3.5023,3.5022,3.5017,3.5033,3.5039,3.5027,3.5016,3.5021,3.5027,3.5022,3.5025,3.5046,3.5036,3.4954,3.4942,3.493,3.4921,3.5048,3.5048,3.5121,3.5122,3.5122]}]]